{"data":{"norad_id":59106,"intl_designator":"2024-043J","name":"RROCI-2","alt_names":[],"object_type":"PAYLOAD","status":"ACTIVE","operator":null,"country":"US","launch_date":"2024-03-04","launch_site_code":"AFWTR","launch_vehicle":null,"mission":null,"orbit_class":"UNKNOWN","rcs_meters":null,"size_class":null,"mass_kg":null,"dimensions":null,"purposes":[],"wikipedia_slug":null,"has_3d_model":false,"image_url":null,"decayed_at":null,"tle_current":{"epoch":"2026-09-22T07:20:26.138112Z","epoch_age_seconds":102048,"freshness":"FRESH","line1":"1 59106U 24043J   26265.30585808  .00001523  00000+0  12630-3 0  9997","line2":"2 59106  97.8539  38.9315 0016616  67.2864 293.0113 15.00264650139322","mean_motion":15.0026465,"eccentricity":0.0016616,"inclination_deg":97.8539,"raan_deg":38.9315,"arg_perigee_deg":67.2864,"mean_anomaly_deg":293.0113,"bstar":0.0001263,"rev_number":13932,"period_min":95.98306538783,"perigee_km":554.54106522287,"apogee_km":577.61808574652,"semimajor_km":6944.2165754847,"source":"CELESTRAK","updated_at":"2026-09-23T09:00:19.174936Z"}}}